TimeMDT,TemperatureF,Dew PointF,Humidity,Sea Level PressureIn,VisibilityMPH,Wind Direction,Wind SpeedMPH,Gust SpeedMPH,PrecipitationIn,Events,Conditions,WindDirDegrees,DateUTC
12:53 AM,66.9,63.0,87,29.91,10.0,SSW,3.5,-,N/A,,Partly Cloudy,210,2013-09-18 06:53:00
1:53 AM,66.9,63.0,87,29.89,10.0,South,5.8,-,N/A,,Clear,180,2013-09-18 07:53:00
2:53 AM,66.9,63.0,87,29.87,10.0,SSE,6.9,-,N/A,,Clear,160,2013-09-18 08:53:00
3:53 AM,66.0,63.0,90,29.86,10.0,South,5.8,-,N/A,,Clear,180,2013-09-18 09:53:00
4:53 AM,64.9,62.1,90,29.86,10.0,SSE,5.8,-,N/A,,Partly Cloudy,160,2013-09-18 10:53:00
5:53 AM,66.0,63.0,90,29.86,10.0,SSE,5.8,-,N/A,,Scattered Clouds,150,2013-09-18 11:53:00
6:53 AM,64.0,62.1,93,29.88,10.0,Calm,Calm,-,N/A,,Partly Cloudy,0,2013-09-18 12:53:00
7:53 AM,69.1,63.0,81,29.89,10.0,SSE,8.1,-,N/A,,Clear,160,2013-09-18 13:53:00
8:53 AM,71.1,64.0,78,29.90,10.0,SSE,12.7,-,N/A,,Clear,160,2013-09-18 14:53:00
9:53 AM,73.9,64.0,71,29.90,10.0,SE,8.1,-,N/A,,Clear,140,2013-09-18 15:53:00
10:53 AM,78.1,64.0,62,29.88,10.0,SE,9.2,-,N/A,,Clear,140,2013-09-18 16:53:00
11:53 AM,80.1,64.0,58,29.86,10.0,South,11.5,19.6,N/A,,Clear,170,2013-09-18 17:53:00
12:53 PM,82.0,62.1,51,29.83,10.0,SE,10.4,-,N/A,,Clear,140,2013-09-18 18:53:00
1:53 PM,84.0,62.1,47,29.80,10.0,SSE,9.2,16.1,N/A,,Clear,150,2013-09-18 19:53:00
2:53 PM,84.9,60.1,43,29.78,10.0,SSE,8.1,-,N/A,,Scattered Clouds,150,2013-09-18 20:53:00
3:53 PM,86.0,59.0,40,29.74,10.0,SSE,9.2,-,N/A,,Partly Cloudy,160,2013-09-18 21:53:00
4:53 PM,87.1,59.0,39,29.72,10.0,SE,12.7,-,N/A,,Clear,130,2013-09-18 22:53:00
5:53 PM,84.0,60.1,44,29.73,10.0,SE,10.4,-,N/A,,Partly Cloudy,140,2013-09-18 23:53:00
6:53 PM,81.0,61.0,50,29.74,10.0,SE,10.4,-,N/A,,Scattered Clouds,140,2013-09-19 00:53:00
7:53 PM,79.0,62.1,56,29.76,10.0,SSE,8.1,-,N/A,,Scattered Clouds,150,2013-09-19 01:53:00
8:53 PM,77.0,63.0,62,29.79,10.0,SE,10.4,-,N/A,,Clear,140,2013-09-19 02:53:00
9:53 PM,77.0,64.0,64,29.80,10.0,SE,13.8,20.7,N/A,,Scattered Clouds,140,2013-09-19 03:53:00
10:53 PM,75.0,63.0,66,29.79,10.0,SSE,16.1,-,N/A,,Clear,160,2013-09-19 04:53:00
11:53 PM,73.0,63.0,71,29.79,10.0,SSE,12.7,-,N/A,,Clear,160,2013-09-19 05:53:00